AirNav   Everest Fuels
 
 1241 users online  

AK83 Gannon's Landing Airport
Wasilla, Alaska, USA

GOING TO WASILLA?


FAA INFORMATION EFFECTIVE 10 SEPTEMBER 2020

Location

FAA Identifier: AK83
Lat/Long: 61-37-38.1000N 149-36-33.5900W
61-37.635000N 149-36.559833W
61.6272500,-149.6093306
(estimated)
Elevation: 380 ft. / 116 m (estimated)
Variation: 24E (1995)
From city: 6 miles W of WASILLA, AK
Time zone: UTC -8 (UTC -9 during Standard Time)
Zip code: 99654

Airport Operations

Airport use: Private use. Permission required prior to landing
Activation date: 08/1997
Control tower: no
ARTCC: ANCHORAGE CENTER
FSS: KENAI FLIGHT SERVICE STATION [907-283-7211]
Attendance: UNATNDD
Wind indicator: yes
Segmented circle: no

Airport Communications

CTAF: 122.8
WX AWOS-3P at IYS (4 nm SE): 135.25 (907-373-3801)
WX AWOS-3P at BCV (13 nm S): 135.55 (907-688-0826)
WX ASOS at PAQ (15 nm E): 134.75 (907-746-6675)

Nearby radio navigation aids

VOR radial/distance  VOR name  Freq  Var
BGQr052/10.8BIG LAKE VORTAC112.5019E
TEDr002/29.3ANCHORAGE VOR/DME113.1518E

 
NDB name  Hdg/Dist  Freq  Var  ID
CAMPBELL LAKE009/30.133816ECMQ -.-. -- --.-

Airport Services

Runway Information

Runway 18/36

Dimensions: 2100 x 175 ft. / 640 x 53 m
Surface: turf
RY SLIPPERY WHEN WET.
RUNWAY 18  RUNWAY 36
Traffic pattern: leftright
Displaced threshold: 900 ft.300 ft.

Airport Ownership and Management from official FAA records

Ownership: Privately-owned
Owner: CHARLY CENTER
P.O. BOX 298783
WASILLA, AK 99654
Phone 907-376-8069
Manager: CHARLY CENTER
P.O. BOX 298783
WASILLA, AK 99629
Phone 907-376-8069

Airport Operational Statistics

Aircraft based on the field: 3
Single engine airplanes: 3
    

Additional Remarks

RY MUDDY IN THE SPRING.

Instrument Procedures

There are no published instrument procedures at AK83.

Some nearby airports with instrument procedures:

PAWS - Wasilla Airport (4 nm SE)
PAGQ - Big Lake Airport (8 nm SW)
PAUO - Willow Airport (15 nm NW)
PAAQ - Warren "Bud" Woods Palmer Municipal Airport (15 nm E)
PAFR - Bryant Army Airfield Heliport (22 nm S)
 
Loc | Ops | Rwys | IFR | FBO | Links
Com | Nav | Svcs | Stats | Notes

Crowley
 
Area around AK83 (Gannon's Landing Airport)
 
Road maps at: MapQuest Bing Google
 
Aerial photo
No photo
 
Sectional chart

 
Airport distance calculator
Flying to Gannon's Landing Airport? Find the distance to fly.

From to AK83

Sunrise and sunset
Times for 27-Sep-2020
 Local
(UTC-8)
 Zulu
(UTC)
Morning civil twilight07:1515:15
Sunrise07:5915:59
Sunset19:3903:39
Evening civil twilight20:2304:23

Current date and time
Zulu (UTC)  27-Sep-2020 22:29:02
Local (UTC-8)  27-Sep-2020 14:29:02
 
METAR
PABV 
13nm S 
272156Z AUTO 04008KT 10SM CLR 14/02 A2893 RMK AO2 SLP801 T01390017
PAAQ 
15nm E 
272153Z 04021G29KT 10SM SCT070 OVC200 15/M01 A2892 RMK AO2 PK WND 03035/2124 SLP795 T01501006
PAFR 
22nm S 
272158Z AUTO 18006KT 9SM BKN150 OVC170 13/04 A2890 RMK AO2 SLP792 T01310035 $
PAED 
23nm S 
272156Z AUTO 01003KT 10SM FEW140 FEW200 14/04 A2892 RMK AO2 SLP789 T01350036 $
PAWS 
26nm NE 
272156Z AUTO 06016G24KT 10SM CLR 14/01 A2895 RMK AO2 PK WND 06026/2138 SLP805 T01440006
PAMR 
26nm S 
272153Z 23003KT 10SM CLR 13/04 A2892 RMK AO2 SLP794 T01280039
TAF
NOTAMs
Click for the latest NOTAMs
NOTAMs are issued by the DoD/FAA and will open in a separate window not controlled by AirNav.

 

 
 

Would you like to see your business listed on this page?

 If your business provides an interesting product or service to pilots, flight crews, aircraft, or users of the Gannon's Landing Airport, you should consider listing it here.  To start the listing process, click on the button below
 
Add a business
 

Other Pages about Gannon's Landing Airport

Update a link
 
Copyright © AirNav, LLC. All rights reserved. Privacy Policy  Contact